Regional Weather Roundup
Issued by NWS

Home | Current Version | Previous Version | Text Only | Print | Product List | Glossary On
Versions: 1 2 3 4 5 6 7 8 9 10 11 12 13 14 15 16 17 18 19 20 21 22 23 24 25 26 27 28 29 30 31 32 33 34 35 36 37 38 39 40 41 42 43 44 45 46 47 48 49 50
000
ASUS43 KDTX 230110
RWRMI
MICHIGAN HOURLY REGIONAL WEATHER ROUNDUP
NATIONAL WEATHER SERVICE DETROIT/PONTIAC MI
900 PM EDT FRI MAY 22 2015

NOTE: "FAIR" INDICATES FEW OR NO CLOUDS BELOW 12,000 FEET WITH NO
SIGNIFICANT WEATHER AND/OR OBSTRUCTION TO VISIBILITY.

MIZ047>049-052>055-059>063-066>070-074>076-081>083-230200-
SOUTHEAST LOWER MICHIGAN

CITY           SKY/WX    TMP DP  RH WIND       PRES   REMARKS
ADRIAN         PTCLDY    61  36  39 NW3       30.26R
ALMA           CLEAR     58  26  29 N7        30.26S
ANN ARBOR      PTCLDY    59  31  34 NE3       30.24R
BAD AXE        CLEAR     43  22  43 CALM      30.30S
CARO           CLEAR     47  29  49 E7        30.29R
DETROIT CITY   CLEAR     51  31  46 NE14      30.27R
DETROIT        PTCLDY    62  31  31 N3        30.24S
FLINT          CLEAR     54  32  43 E14       30.26R
GROSSE ILE     CLEAR     57  41  54 SE5       30.23S
HILLSDALE      PTCLDY    59  33  36 NW7       30.27R
HOWELL         CLEAR     60  29  30 CALM      30.24R

CITY           SKY/WX    TMP DP  RH WIND       PRES   REMARKS
JACKSON        PTCLDY    59  31  34 CALM      30.26R
LAMBERTVILLE   PTCLDY    59  37  44 CALM      30.25R
LANSING        CLEAR     60  29  30 NW6       30.26R
LAPEER         FAIR      46  24  40 E7        30.29R
MASON          PTCLDY    57  31  36 CALM      30.25R
MONROE         PTCLDY    55  36  47 E5        30.23R
MT. CLEMENS    CLEAR     46  23  39 NE10      30.27R
PONTIAC        PTCLDY    52  32  46 NE15      30.25R
PORT HOPE        N/A     45  26  47 E7        30.29R
PORT HURON     CLEAR     41  27  56 NE5       30.31R
TRI CITIES     CLEAR     54  38  54 NE10      30.29R
MIDLAND        FAIR      52  36  54 NE7       30.27S
TROY           CLEAR     54  28  36 NE8       30.29R
SAGINAW HB     CLEAR     55  30  38 N7        30.27R
$$
MIZ043>046-050>051-056>058-064>065-071>073-077>080-230200-
SOUTHWEST LOWER MICHIGAN

CITY           SKY/WX    TMP DP  RH WIND       PRES   REMARKS
BATTLE CREEK   PTCLDY    57  32  38 W8        30.29R
BENTON HARBOR  MOCLDY    50  37  61 CALM      30.28F
BIG RAPIDS     CLEAR     55  21  26 CALM      30.26S
COLDWATER      PTCLDY    58  28  32 NW5       30.28R
FREMONT        FAIR      57  16  20 NE3       30.26S
HOLLAND        MOCLDY    53  36  52 W6        30.30R
GRAND RAPIDS   MOCLDY    59  26  28 NW8       30.28R
IONIA          FAIR      60  27  28 NW7       30.25R
KALAMAZOO      PTCLDY    57  30  35 NW7       30.29R
LUDINGTON      CLEAR     53  26  35 CALM      30.26F
MARSHALL       PTCLDY    55  33  44 W5        30.27R
MOUNT PLEASANT CLEAR     55  25  31 N5        30.27S
MUSKEGON       MOCLDY    52  32  46 CALM      30.28R
SOUTH HAVEN    MOCLDY    53  38  56 CALM      30.30S
$$
MIZ016>042-230200-
NORTHERN LOWER MICHIGAN

CITY           SKY/WX    TMP DP  RH WIND       PRES   REMARKS
ALPENA         CLEAR     47  26  44 N6        30.27R
BEAVER ISLAND  CLEAR     48  22  35 SW3       30.28S
BELLAIRE       CLEAR     49  30  48 CALM      30.28F
CADILLAC       CLEAR     54  25  33 N3        30.26S
CHARLEVOIX     CLEAR     50  24  36 SW3       30.31S
FRANKFORT      CLEAR     52  20  28 CALM      30.27S
GAYLORD        CLEAR     50  19  29 NW3       30.27R
GRAYLING       CLEAR     50  19  29 CALM      30.28F
HARBOR SPRINGS CLEAR     44  32  62 SW3       30.29R
HOUGHTON LAKE  CLEAR     51  19  28 NW6       30.28S
MANISTEE       CLEAR     55  28  35 CALM      30.26F
OSCODA         CLEAR     45  28  51 S5        30.29R
PELLSTON       CLEAR     50  23  34 W3        30.28R
ROGERS CITY    CLEAR     48  27  44 NW3       30.28R
TRAVERSE CITY  PTCLDY    52  27  38 CALM      30.28S
$$
MIZ007>008-015-230200-
EASTERN UPPER MICHIGAN

CITY           SKY/WX    TMP DP  RH WIND       PRES   REMARKS
KINROSS        CLEAR     45  19  36 N6        30.27R
MACKINAC ISLAN CLEAR     47  30  51 W7        30.27S
NEWBERRY       CLEAR     48  24  38 N8        30.26S
S. S. MARIE    CLEAR     42  19  39 NW7       30.26R
MUNISING         N/A     47  33  58 CALM      30.25F
$$
MIZ004>006-011>014-085-230200-
CENTRAL UPPER MICHIGAN

CITY           SKY/WX    TMP DP  RH WIND       PRES   REMARKS
MANISTIQUE     CLEAR     44  33  63 SW6       30.27S
ESCANABA       CLEAR     50  28  43 S6        30.27S
MENOMINEE      CLEAR     50  30  46 SE9       30.23F
SAWYER-GWINN   CLEAR     54  21  28 E5        30.25S
$$
MIZ001>003-009>011-084-230200-
WESTERN UPPER MICHIGAN

CITY           SKY/WX    TMP DP  RH WIND       PRES   REMARKS
IRON MOUNTAIN  CLEAR     58  33  39 SE9       30.21R
HOUGHTON       CLEAR     47  27  45 E5        30.20F
COPPER HARBOR    N/A     44  23  43 SW9       30.20F
IRONWOOD       CLEAR     64  28  25 S6        30.15F
$$

ABBREVIATIONS USED IN REMARKS
   TC - TEMPERATURE IN CELSIUS
  WCI - WIND CHILL INDEX
   HX - HEAT INDEX
  VSB - VISIBILITY



USA.gov is the U.S. government's official web portal to all federal, state and local government web resources and services.